GFSGBSN_700_spd_057.txt.gz
Wind_Speed
16 17 17 18 18 19 19 19 19 20 20 21 20 19 18 17 17 17 17 15 14 13 13 11 10 11 10 10 15 6 3 12 14 15 15 16 20 16 14 13 12 20 16 13 14 12 16
19 20 20 21 21 21 21 21 22 22 22 21 22 22 20 19 18 17 16 16 14 13 12 11 10 9 10 12 15 12 10 8 14 16 15 18 17 15 10 14 17 15 18 16 13 11 7
21 21 21 22 23 24 25 25 25 24 23 22 23 23 22 22 20 18 16 15 14 12 11 11 10 8 9 12 10 14 11 11 12 16 17 16 18 17 14 15 11 20 23 20 16 18 22
24 24 25 26 27 27 28 28 28 27 26 25 25 24 23 21 21 19 15 14 13 11 10 10 10 9 10 8 10 8 11 12 14 15 19 18 18 14 15 14 15 18 17 20 18 15 15
27 27 28 29 29 29 29 29 28 28 27 26 26 26 24 21 20 17 16 12 10 10 9 10 11 9 5 4 8 8 7 10 14 14 19 21 12 13 15 20 19 19 21 19 22 16 24
28 28 28 27 28 28 29 29 27 27 27 26 24 23 23 21 20 18 14 10 8 7 9 9 9 6 8 2 6 4 3 13 14 18 24 17 13 22 21 19 25 20 21 18 22 16 30
32 32 31 29 28 28 28 28 27 26 24 23 21 19 18 16 15 13 10 6 6 7 11 10 7 8 4 11 8 5 3 14 15 15 17 17 22 28 26 24 23 24 26 24 21 13 26
30 28 28 25 25 24 24 22 21 22 22 21 20 18 16 12 10 9 6 8 11 14 14 20 14 11 13 11 5 6 7 11 14 18 17 15 28 23 18 17 20 17 22 23 20 15 21
26 25 24 23 22 22 23 23 23 23 23 21 19 18 15 11 7 7 6 7 5 9 15 13 15 15 11 10 10 11 7 11 10 15 18 21 14 12 22 21 23 27 24 23 23 19 20
23 23 23 23 23 24 24 24 23 22 21 21 19 17 15 9 2 8 7 2 4 4 7 3 16 11 16 12 13 10 12 15 16 19 16 22 20 22 21 23 22 26 20 22 24 24 17
25 25 25 23 23 24 25 25 24 24 22 20 20 18 13 7 6 8 11 11 5 4 3 14 17 7 8 7 6 12 19 16 17 17 15 21 21 23 25 27 18 26 20 21 22 23 26
27 25 23 23 25 26 26 27 26 24 22 20 18 16 10 4 6 8 5 6 6 1 6 8 10 7 12 16 7 4 4 7 15 18 20 19 21 21 22 23 23 16 23 22 22 21 18
26 23 22 24 27 27 27 28 27 25 22 19 16 12 7 1 3 3 7 12 1 5 14 10 9 6 6 9 9 4 5 6 9 6 14 10 18 22 20 21 27 20 19 14 7 12 9
25 22 23 25 27 29 29 29 29 26 21 17 12 9 3 3 3 6 9 6 4 8 17 8 12 7 7 10 6 5 2 4 7 9 15 15 16 14 17 17 16 22 25 15 8 6 9
24 23 24 25 28 30 29 29 28 26 20 14 7 5 12 4 7 6 10 2 11 9 12 10 3 4 4 6 5 5 5 9 8 10 13 6 15 16 7 28 22 24 20 28 23 31 14
25 24 24 25 27 28 28 27 26 24 18 15 11 14 19 16 5 8 6 4 10 12 4 6 7 6 8 13 4 4 3 5 5 3 4 3 11 10 4 13 20 25 20 8 27 6 6
26 26 25 25 27 26 25 26 25 23 15 15 12 9 11 15 14 12 6 6 6 11 11 5 3 4 5 11 10 8 7 5 3 6 10 11 9 24 11 2 12 15 22 11 12 10 4
26 27 25 24 25 24 22 26 25 23 15 13 13 10 14 12 9 7 4 7 6 7 6 6 7 4 2 6 6 7 9 9 11 8 2 3 4 17 25 21 11 14 19 15 11 10 16
26 26 24 24 22 21 23 25 25 23 18 13 13 9 13 7 8 9 6 11 12 6 6 6 4 5 6 6 8 4 3 7 7 5 3 8 3 9 16 25 17 10 14 26 20 24 29
25 24 23 22 20 21 22 23 23 22 20 8 10 5 8 4 7 4 6 5 6 4 7 7 5 2 2 1 1 6 10 8 13 2 6 9 14 9 15 16 18 20 16 12 15 18 22
23 23 22 19 18 20 22 23 23 21 21 14 8 6 3 3 12 10 5 0 8 5 11 8 2 8 7 7 10 3 7 9 9 9 8 8 15 20 23 23 20 23 23 22 21 19 22
21 22 21 18 16 18 21 23 23 20 20 17 10 8 14 11 10 5 2 6 8 7 0 4 4 5 5 6 8 13 13 10 11 13 9 13 16 16 26 23 25 26 25 25 26 26 27
17 22 21 18 14 15 20 22 19 22 21 21 16 15 15 11 7 4 8 6 8 10 2 4 10 9 7 9 14 18 18 17 15 12 14 15 18 14 24 16 18 23 27 25 25 25 27
15 18 20 18 14 13 17 16 21 22 20 17 13 13 12 13 14 11 7 7 8 10 11 10 10 8 10 12 12 9 8 8 10 13 13 18 18 17 18 10 3 26 16 23 27 32 28
14 17 18 17 13 12 14 13 18 21 20 14 17 13 17 11 9 10 13 14 5 6 8 5 9 12 13 13 13 7 9 2 5 13 15 18 21 24 16 14 20 26 23 12 20 33 29
14 15 17 16 13 11 11 12 14 18 17 17 12 12 9 11 14 12 14 16 14 8 2 10 12 11 15 10 5 6 5 8 1 6 3 13 18 17 17 7 6 30 15 17 23 31 27
12 14 16 16 12 10 9 9 11 15 14 14 15 11 10 9 7 9 11 9 13 15 10 12 8 10 16 12 7 5 3 8 6 11 13 12 11 13 23 15 15 21 24 23 14 26 31
11 13 14 15 12 9 8 9 9 11 14 13 12 11 9 5 9 9 16 19 10 10 10 10 5 11 9 11 8 6 5 6 7 7 12 7 11 8 8 6 10 19 21 12 26 39 36
10 12 13 15 12 9 8 7 8 8 9 12 12 10 10 7 3 3 11 16 16 2 7 10 11 8 11 9 8 4 4 4 11 4 9 6 14 14 12 13 23 29 29 28 33 41 43

GFSGBSN_700_spd_063.txt.gz
Wind_Speed
17 18 19 19 19 19 20 20 21 21 21 22 23 23 23 22 21 19 18 17 15 15 14 13 13 12 10 10 11 7 11 16 17 16 14 18 20 20 24 18 16 16 9 1 6 10 2
18 19 19 20 20 21 21 22 22 22 22 23 23 23 23 23 22 21 20 19 17 16 15 16 13 12 11 9 10 13 9 14 17 17 16 15 15 13 20 21 20 7 4 8 12 8 6
19 21 21 21 20 20 20 20 20 20 20 20 19 20 21 22 23 22 21 21 19 17 17 16 15 13 10 10 10 14 17 12 14 17 15 12 16 18 23 20 16 10 8 8 8 5 9
24 23 21 20 18 17 16 15 16 17 17 17 17 17 18 19 20 20 20 20 19 18 16 16 15 13 10 12 12 12 13 15 15 18 18 15 18 21 22 14 11 9 10 7 4 3 8
21 20 19 18 16 16 16 17 17 17 17 16 16 16 16 17 18 16 19 19 18 17 17 16 15 13 10 11 9 8 10 13 17 18 21 23 23 22 18 14 13 9 8 7 3 5 8
22 21 20 19 18 19 19 19 19 18 18 18 17 17 16 16 15 12 16 18 17 16 17 16 15 11 10 8 7 7 10 16 17 19 25 29 30 26 23 18 11 7 11 10 5 9 6
22 21 20 18 19 20 20 20 20 20 20 20 19 17 16 15 13 9 12 12 14 16 18 17 14 14 16 15 12 4 6 16 17 19 29 33 32 32 24 20 16 14 15 17 14 6 14
25 23 19 19 21 23 23 21 22 23 23 21 19 17 15 14 10 6 8 10 13 14 17 17 15 20 20 17 13 9 12 15 19 17 26 30 33 25 23 23 18 16 17 18 10 2 9
25 22 19 21 22 23 24 24 23 23 22 21 19 16 12 11 8 6 10 14 14 15 14 14 20 23 19 14 15 11 7 16 14 20 24 24 17 24 24 18 20 19 20 14 10 10 14
23 21 21 22 23 25 26 25 25 24 23 22 18 14 9 8 7 8 13 15 15 11 7 6 19 24 18 15 14 12 11 14 14 9 23 21 18 17 18 21 18 19 18 12 10 11 7
25 25 24 24 24 25 26 25 24 24 24 21 16 10 7 6 8 10 8 9 7 6 1 3 15 19 13 15 10 12 12 14 12 10 16 13 18 20 14 17 16 22 11 11 13 14 13
26 26 25 24 24 24 23 23 24 24 24 17 12 6 3 5 7 6 5 3 2 1 1 5 14 16 17 13 12 16 12 11 13 17 15 18 12 10 12 13 14 11 10 15 18 16 6
25 26 27 25 24 22 21 22 23 23 20 15 11 6 3 2 0 2 3 10 4 4 2 5 10 13 13 18 14 9 8 4 2 10 20 20 21 18 13 12 12 13 15 3 1 3 5
25 26 25 24 24 23 22 23 23 21 15 15 15 11 6 5 6 9 4 9 10 6 12 6 10 11 12 17 11 7 7 9 6 3 5 6 8 17 12 14 15 13 16 10 5 5 5
24 25 23 23 23 23 22 22 21 16 14 13 12 10 10 12 14 9 15 23 13 10 13 10 13 11 11 14 13 11 13 12 7 3 2 5 6 10 5 8 15 13 10 14 14 4 2
23 23 22 21 22 22 22 22 21 14 8 9 10 10 13 16 15 13 8 17 9 10 8 8 11 9 15 11 15 9 6 6 7 7 4 2 1 4 1 4 7 14 9 8 9 6 4
21 22 20 19 20 22 23 22 20 14 9 8 13 18 14 12 10 11 12 11 6 8 7 4 6 6 9 10 11 9 6 5 5 6 5 2 2 1 4 8 13 4 4 4 5 4 6
20 20 19 18 18 21 23 22 19 15 6 5 3 9 10 6 4 8 7 7 3 2 5 3 2 1 3 5 6 6 6 4 2 2 3 2 3 5 6 3 6 7 15 9 4 2 4
17 20 19 18 17 21 22 20 19 17 6 4 5 5 3 3 3 5 9 4 5 6 5 5 2 0 1 4 4 10 4 2 7 6 1 2 4 4 8 12 8 6 12 11 7 4 5
14 18 20 18 17 19 20 21 18 16 16 5 4 3 4 5 3 1 1 6 3 3 2 3 3 3 7 7 5 8 7 3 3 6 5 5 2 2 3 1 8 10 12 8 12 7 6
14 16 19 18 16 17 18 21 21 15 12 12 3 5 7 7 7 1 3 3 3 2 2 1 2 2 5 8 8 8 7 5 9 9 10 5 5 5 4 7 11 15 16 15 10 6 6
14 15 17 17 15 15 16 20 20 16 17 15 8 8 9 10 9 4 2 7 6 4 1 2 3 3 1 4 8 8 12 9 8 6 6 6 3 7 10 14 16 20 19 19 16 12 19
13 14 16 16 14 13 14 18 18 16 15 15 14 12 9 13 10 7 10 9 6 6 5 4 5 2 0 3 6 7 9 8 8 8 5 3 2 5 5 14 19 14 1 1 3 3 12
13 14 15 15 14 12 12 15 17 16 13 12 11 10 8 9 9 12 12 11 9 8 5 5 6 2 2 0 1 2 2 4 3 5 7 5 3 1 2 8 2 4 6 6 7 5 8
11 12 13 14 14 11 10 12 14 14 14 12 10 8 8 7 9 9 7 8 10 8 6 6 5 4 3 4 10 9 9 7 3 2 3 4 6 4 2 8 13 18 16 13 14 16 18
10 12 12 13 14 11 8 9 11 12 12 10 10 9 7 6 6 8 7 5 7 7 7 6 6 7 4 2 8 5 4 4 4 2 5 6 7 9 8 3 4 3 6 8 10 20 15
9 11 11 12 13 11 7 7 8 9 10 11 9 8 7 5 4 8 10 8 4 5 7 7 3 4 4 4 7 4 2 5 4 3 3 7 8 10 10 9 9 17 21 21 17 19 21
9 10 11 11 12 11 7 7 6 6 7 9 11 9 5 5 3 1 4 11 9 7 7 8 3 5 2 2 2 3 4 4 2 2 1 3 3 2 4 6 9 12 18 19 21 26 27
8 9 10 10 11 11 7 8 7 7 7 9 10 10 8 6 6 7 8 8 7 8 7 4 4 5 4 4 2 3 1 2 2 4 3 3 4 4 5 7 11 15 20 22 27 30 32

GFSGBSN_700_spd_069.txt.gz
Wind_Speed
15 15 16 16 16 16 16 17 17 18 19 20 20 20 21 21 20 21 21 21 19 17 14 12 10 9 9 9 11 8 13 16 17 16 14 15 18 20 21 21 17 12 10 5 2 2 3
18 18 18 18 17 16 16 16 15 15 15 15 15 16 17 18 18 18 19 19 20 18 17 15 12 9 8 10 11 12 12 16 17 17 15 15 15 17 21 20 19 16 13 8 3 0 2
21 20 19 17 16 15 16 16 16 16 16 16 16 15 15 15 15 18 18 17 19 18 18 17 14 11 10 12 12 14 14 18 20 19 15 14 17 18 18 20 21 12 11 11 4 3 2
21 21 20 17 16 17 18 19 18 18 18 18 17 17 17 15 15 16 15 15 16 17 17 16 15 12 13 13 14 15 16 15 20 23 22 18 18 20 18 22 18 14 9 8 6 4 7
21 20 19 17 18 19 20 20 21 21 20 20 19 18 17 16 15 16 14 13 13 14 14 14 14 12 13 14 16 16 17 16 16 23 25 24 22 23 19 21 14 15 9 12 6 6 7
20 20 20 19 19 20 21 21 22 21 21 21 21 20 18 16 14 15 13 12 11 9 12 12 13 12 13 19 21 18 17 19 18 21 26 26 26 26 23 24 18 13 10 13 8 9 7
21 21 22 22 21 21 22 22 21 21 20 21 21 21 20 18 14 14 12 10 8 7 9 12 7 15 17 21 22 20 19 21 20 21 28 30 29 32 27 26 11 12 15 11 10 9 5
22 22 22 22 21 21 21 21 20 20 20 22 22 22 21 17 13 13 11 8 6 7 6 11 14 15 21 24 22 21 25 23 22 23 26 28 31 28 24 21 20 11 11 12 10 5 4
21 21 22 22 22 21 20 19 19 20 21 23 23 21 17 12 10 9 8 7 6 6 5 7 12 18 22 25 22 21 20 19 19 21 25 26 18 25 23 21 17 14 12 12 7 8 7
20 22 21 21 21 21 20 20 21 21 22 22 21 20 15 9 7 5 5 4 4 4 2 1 11 19 22 24 19 16 18 16 17 16 16 16 16 26 25 18 17 12 15 10 9 6 7
20 21 20 21 21 21 21 22 22 22 22 21 20 15 10 7 4 2 2 1 1 1 1 1 6 22 22 21 19 19 20 15 11 15 19 10 21 24 24 19 18 10 5 10 8 6 3
20 21 20 20 20 21 21 21 22 22 21 21 18 12 7 3 2 2 4 3 2 0 2 2 8 22 22 13 20 20 22 16 11 11 16 9 17 15 21 21 16 13 10 6 7 5 7
19 19 19 18 20 21 21 21 22 21 21 22 18 11 6 4 2 2 5 7 3 3 2 5 10 20 20 16 18 24 20 18 14 13 15 17 17 17 16 16 18 19 15 7 7 6 7
18 18 18 18 20 22 22 20 21 21 20 21 15 8 7 8 7 10 9 7 5 7 7 8 13 18 17 17 18 20 18 14 16 13 15 15 12 17 16 17 15 21 21 8 7 8 11
16 17 18 19 19 21 21 21 20 20 17 15 9 7 6 6 6 7 7 12 5 9 7 7 16 18 15 15 15 17 14 12 10 13 7 15 5 15 15 14 17 19 21 17 4 6 12
14 16 18 19 20 20 20 21 19 21 13 12 6 6 6 5 7 3 4 15 10 10 8 6 6 10 15 15 15 14 9 12 11 11 9 10 9 12 16 16 17 15 19 16 11 7 9
12 14 18 20 20 19 20 20 17 19 11 8 7 5 6 5 4 5 7 12 11 9 7 5 7 9 15 14 14 12 9 10 11 10 10 10 8 7 12 9 14 13 18 13 16 4 6
14 14 17 19 18 18 19 17 17 13 14 9 7 2 2 2 3 3 8 9 6 5 6 4 7 8 8 10 10 9 13 8 12 11 8 5 8 8 13 14 13 13 15 16 15 8 5
14 14 16 17 17 18 18 17 17 14 12 11 9 5 3 3 2 6 7 7 5 5 5 5 4 5 5 6 6 11 13 12 11 10 9 8 7 9 5 4 6 7 9 12 11 15 9
13 13 14 16 15 16 17 15 15 17 15 10 9 8 8 7 6 6 5 6 5 5 6 2 4 4 5 5 5 8 11 10 9 9 9 7 9 4 4 6 8 6 5 5 8 5 9
12 12 14 14 14 15 15 14 12 12 13 13 12 14 15 12 9 8 7 6 6 3 4 2 3 3 4 6 7 9 10 10 9 9 8 7 7 7 8 8 7 9 8 4 2 8 3
11 11 12 13 12 13 14 14 13 11 13 8 10 13 14 14 13 11 7 8 6 4 3 4 2 3 2 6 7 10 9 9 9 7 8 9 8 10 10 10 10 13 14 13 10 8 9
11 10 11 12 12 11 12 12 12 10 10 8 11 12 11 12 11 8 10 10 8 4 5 5 4 4 2 3 4 6 8 9 8 8 8 8 9 9 4 9 6 8 15 13 12 12 13
10 9 10 11 11 9 10 10 11 10 9 9 9 9 10 10 11 10 9 10 10 7 5 5 5 4 3 3 2 2 4 4 5 7 8 9 11 10 6 10 5 7 12 13 14 13 14
12 9 9 10 11 8 8 8 8 9 9 8 7 7 7 8 11 11 8 7 8 8 6 5 5 4 3 5 8 6 5 5 4 6 8 10 11 7 6 10 4 10 16 14 15 16 15
14 10 9 9 9 8 6 7 6 6 7 8 7 7 6 5 7 9 10 9 7 6 5 4 4 4 2 5 4 3 4 5 4 5 7 8 8 7 8 4 6 6 14 16 14 12 18
14 11 8 8 8 8 6 7 6 5 5 6 6 6 5 5 3 4 6 8 8 5 4 1 2 1 2 3 6 5 5 6 6 7 9 10 9 9 7 4 5 11 10 9 5 7 10
13 10 8 7 8 7 5 6 7 6 6 4 5 6 6 6 5 4 6 8 7 7 4 2 1 1 1 2 3 3 3 6 6 7 7 8 9 10 11 6 7 9 9 9 10 14 18
10 9 8 6 7 8 6 6 7 6 7 6 6 6 5 5 5 5 5 7 7 6 5 4 2 1 1 2 2 1 2 4 5 4 7 6 8 6 8 7 7 8 10 12 13 15 17

GFSGBSN_700_spd_072.txt.gz
Wind_Speed
15 14 13 13 13 13 14 14 14 13 12 13 14 14 14 14 15 15 16 17 17 18 17 14 11 10 9 11 14 10 18 19 21 18 16 19 19 17 15 15 13 11 7 4 2 2 2
15 15 15 14 13 13 14 15 15 14 14 13 13 13 12 13 13 13 13 13 15 16 17 17 13 12 11 13 13 13 16 20 21 20 18 19 18 16 16 14 13 11 9 5 2 2 2
18 18 16 14 14 15 16 16 16 15 15 15 14 14 13 12 11 12 12 11 11 13 15 17 15 13 13 17 16 16 14 21 22 21 18 20 21 18 13 12 15 8 8 6 5 4 4
18 18 18 17 16 17 17 17 17 17 16 16 15 14 14 13 12 10 10 10 10 9 12 15 15 13 15 16 17 17 18 21 24 24 23 21 22 15 13 16 15 10 11 12 7 6 7
19 19 19 19 18 17 18 18 19 19 18 18 17 16 15 14 13 12 9 8 7 7 8 12 13 13 15 16 18 19 20 18 24 25 25 24 22 15 16 14 14 17 16 15 7 8 9
19 20 20 19 19 19 19 19 17 17 17 17 18 18 17 16 13 10 9 6 4 3 7 10 12 11 12 18 20 21 24 23 20 24 25 24 16 16 17 21 23 21 16 17 10 10 9
19 20 19 19 20 20 19 17 17 17 17 18 19 19 19 17 13 9 6 3 2 1 5 11 12 15 13 21 22 21 21 23 21 22 19 24 19 23 22 20 11 19 19 16 11 11 9
18 19 19 19 19 19 19 19 19 19 19 20 20 19 17 12 9 5 3 1 1 3 2 9 10 16 17 25 25 22 20 17 20 20 19 21 25 19 18 19 16 16 18 15 11 9 9
17 18 18 18 19 19 20 20 20 20 20 20 20 19 15 9 5 3 1 2 4 4 4 5 11 16 15 23 19 26 24 14 17 19 22 20 15 20 21 20 18 17 19 17 9 10 8
17 18 17 18 19 20 21 22 22 21 21 21 20 17 13 8 2 1 0 1 3 5 5 0 5 15 19 19 13 18 21 14 14 18 17 18 15 22 21 21 20 18 17 15 14 11 15
17 17 17 18 19 20 22 23 23 22 21 21 20 17 12 6 3 1 1 4 7 8 5 1 4 16 15 20 17 19 18 14 13 14 17 16 22 20 23 21 19 12 15 15 14 15 8
16 17 17 17 19 21 22 21 22 22 20 20 17 13 10 5 1 1 2 5 7 3 5 2 6 17 19 16 13 20 21 14 12 13 15 10 16 17 22 20 18 12 13 12 12 16 15
16 16 16 18 20 22 21 19 21 21 19 18 14 10 8 6 4 1 4 10 3 3 1 4 7 16 18 16 13 21 21 16 14 15 18 11 14 18 21 20 18 17 18 14 12 12 11
14 15 17 19 20 21 20 19 18 19 17 15 10 9 8 7 8 12 10 5 3 3 3 2 8 17 16 16 14 19 17 15 12 10 19 18 17 18 18 22 21 23 24 13 11 12 16
13 13 17 20 20 20 19 19 16 17 14 9 10 11 8 10 8 8 6 6 4 3 3 2 12 15 13 11 13 16 13 9 10 17 9 20 11 13 14 16 16 24 27 19 9 5 19
13 12 16 20 19 18 18 18 15 16 12 8 8 7 4 6 9 7 4 8 4 8 8 7 13 9 13 11 14 13 9 8 8 17 17 10 8 13 15 19 20 13 21 18 15 12 14
14 12 14 18 17 16 16 18 17 13 13 7 5 3 2 2 4 5 6 6 5 7 6 4 6 12 10 9 10 8 6 8 12 14 13 10 9 10 16 12 15 21 15 18 21 12 14
13 12 14 16 15 15 15 16 16 14 9 8 6 1 2 2 3 3 5 5 7 14 10 4 5 10 15 9 9 6 9 11 11 12 10 10 6 13 11 14 18 17 12 19 20 16 14
13 11 13 14 14 13 13 14 13 16 10 8 6 3 2 2 1 4 4 3 6 5 11 11 5 7 13 14 7 10 14 12 14 11 10 10 6 12 10 7 10 10 9 12 15 10 24
12 11 12 13 13 13 11 12 11 11 12 11 10 3 10 7 6 6 6 6 4 6 7 7 8 8 7 7 8 12 14 17 15 12 9 9 8 2 2 6 11 8 6 4 12 21 14
12 10 11 12 12 12 12 11 9 9 10 11 9 12 11 5 6 7 5 5 4 2 5 5 5 8 7 5 6 7 9 12 14 15 12 7 6 6 5 6 6 7 5 2 6 11 11
14 11 9 10 10 11 11 11 9 8 10 8 7 10 11 11 10 9 7 6 6 4 4 4 5 5 8 8 7 8 8 7 7 14 13 13 7 8 5 8 5 6 6 6 5 5 8
14 12 9 8 9 9 8 9 9 8 8 7 7 8 10 9 8 5 6 5 4 4 5 4 4 5 4 7 9 8 13 12 12 8 6 6 9 10 13 7 6 12 15 10 11 10 11
13 11 10 8 8 7 7 6 7 7 6 8 8 8 9 7 7 7 7 8 7 7 7 6 5 2 2 3 4 4 4 6 9 12 8 6 9 8 5 7 8 6 15 16 12 10 14
13 12 11 9 8 7 5 5 5 5 6 5 5 5 6 7 8 9 9 8 9 7 6 5 5 5 5 8 5 3 2 3 1 6 7 9 9 7 6 15 1 6 10 10 13 10 19
14 13 12 10 8 8 6 4 4 4 3 3 4 4 4 3 3 5 8 8 4 3 5 3 4 5 7 4 1 2 2 2 3 3 6 7 9 8 8 6 5 5 14 17 13 10 15
15 13 12 10 7 7 7 5 4 4 3 3 3 3 3 3 1 2 3 3 5 4 3 1 2 2 3 2 1 2 3 5 3 5 6 7 7 10 9 8 6 7 9 13 9 7 10
15 14 12 10 7 6 6 6 5 5 3 3 3 2 2 1 2 2 1 1 3 5 2 2 1 1 1 2 2 3 3 6 5 9 6 8 6 8 9 8 9 10 13 10 12 10 11
13 11 10 9 7 6 6 7 6 5 3 3 3 2 2 3 4 4 3 2 2 1 0 1 2 2 4 2 3 2 2 3 5 3 11 7 9 6 8 6 9 7 9 10 11 11 9

GFSGBSN_700_spd_075.txt.gz
Wind_Speed
15 15 15 13 11 11 11 11 11 10 10 10 9 9 10 10 9 10 13 14 16 18 18 17 15 13 11 12 11 10 18 19 20 18 21 19 18 16 14 13 11 7 8 5 6 5 5
16 15 14 13 13 12 12 12 12 12 12 12 11 11 10 10 10 9 8 10 12 15 18 19 17 15 14 11 21 15 16 20 20 19 19 18 16 15 15 15 14 12 9 5 4 5 4
17 16 15 15 14 14 15 15 15 14 12 12 12 11 12 10 10 10 9 9 9 11 15 18 19 17 16 15 18 16 14 19 20 19 18 17 14 16 10 14 17 10 13 8 6 7 6
16 16 17 17 16 16 16 15 16 16 15 15 13 12 11 10 10 9 9 9 9 9 12 16 17 17 11 22 17 16 16 20 22 21 16 17 17 16 12 14 16 13 14 16 12 10 8
17 17 17 17 17 17 16 16 16 16 15 15 15 14 13 11 9 9 8 8 8 7 10 14 15 16 11 16 18 19 18 19 23 18 17 22 18 16 15 17 17 18 19 17 14 11 9
16 17 17 17 17 17 17 17 17 17 18 18 17 17 15 13 10 9 8 6 4 4 8 10 12 13 17 18 19 20 19 19 19 19 19 20 14 18 19 21 26 23 22 21 13 13 12
16 16 16 17 17 17 17 17 17 18 18 18 18 17 16 15 10 6 6 4 2 4 8 11 6 5 5 16 20 20 21 20 18 16 17 18 19 24 21 22 22 19 22 18 12 14 14
15 15 16 16 16 18 19 19 18 18 19 19 19 17 16 13 8 3 5 5 9 12 3 12 11 12 13 17 18 18 21 20 20 19 20 17 25 19 17 18 20 19 23 19 14 11 12
15 15 15 15 17 19 20 20 20 19 18 19 18 16 14 10 4 2 5 5 9 8 4 9 12 14 14 18 16 21 23 17 19 19 22 19 15 19 19 19 19 20 21 21 17 15 16
15 14 14 15 18 20 21 20 19 19 19 20 18 15 12 8 4 3 2 5 6 8 5 8 10 13 15 15 17 20 22 17 17 19 19 21 17 21 21 22 20 22 20 17 16 19 19
14 14 14 16 18 20 20 20 19 18 17 18 17 14 11 7 3 4 6 5 10 11 6 5 8 10 13 19 15 23 21 18 14 17 20 20 19 19 22 22 21 16 18 16 17 20 16
14 13 14 18 19 20 19 19 18 18 18 15 13 12 11 9 7 1 4 7 8 6 3 4 7 12 18 21 13 18 21 18 12 16 18 17 16 19 22 21 21 10 14 16 17 20 22
13 12 14 18 19 20 19 19 16 17 16 13 10 10 12 11 1 2 9 6 6 6 4 5 9 15 18 19 15 18 23 21 16 19 19 20 14 21 20 23 22 18 20 17 14 15 13
13 12 14 18 18 18 18 18 15 17 14 10 9 8 11 10 9 10 7 4 11 4 6 2 8 14 20 19 15 18 22 21 19 17 16 23 18 23 22 27 23 25 27 22 12 13 17
14 13 14 16 17 17 16 17 15 16 13 8 5 9 11 7 8 5 4 4 7 2 2 1 9 17 16 12 13 21 21 18 16 13 8 21 16 22 20 21 24 25 31 29 19 19 21
13 13 13 15 15 15 14 15 16 13 13 8 6 3 5 5 6 6 4 8 4 3 3 2 11 9 12 18 17 19 16 10 7 10 5 4 13 19 18 13 19 18 26 30 21 17 15
13 13 13 14 13 13 13 14 14 13 8 9 11 2 11 3 7 7 5 5 4 3 4 4 5 9 7 10 12 18 11 5 10 10 11 5 13 16 15 23 20 19 16 31 21 26 14
13 13 13 14 13 13 12 12 11 13 10 5 5 5 13 3 2 1 3 2 4 3 2 5 4 4 10 4 9 7 10 3 11 7 9 10 10 13 19 15 17 13 23 24 24 26 24
14 14 12 13 13 12 12 11 10 9 10 5 2 4 6 3 4 0 3 3 5 3 3 4 3 7 8 9 3 13 2 8 10 6 8 7 13 9 9 11 19 17 17 17 25 25 21
12 13 12 13 12 11 11 10 8 9 7 6 6 1 8 7 5 4 4 2 1 3 1 4 4 4 9 12 9 8 12 8 10 6 9 16 7 5 7 3 22 25 18 19 17 20 19
14 14 12 11 11 10 9 7 6 7 6 7 5 4 6 2 5 5 4 3 3 1 3 2 2 6 7 8 13 11 10 9 16 14 7 9 15 17 6 3 3 17 17 16 22 21 17
14 14 12 11 11 9 8 6 5 5 6 8 4 4 8 6 7 6 5 5 3 2 3 3 4 2 6 7 5 11 10 10 10 9 8 10 7 10 15 11 3 7 10 8 12 13 13
13 12 12 11 11 9 7 5 4 3 4 3 5 7 8 5 5 1 2 2 2 3 5 4 4 4 6 7 5 7 8 8 9 8 10 10 13 12 19 16 10 16 14 12 11 11 10
14 12 11 10 10 9 7 6 3 2 1 3 4 7 5 3 3 2 5 6 6 5 5 4 3 2 4 4 3 3 4 5 6 9 11 10 13 14 20 12 13 14 18 15 14 13 6
16 14 12 11 10 9 7 5 4 2 0 1 3 5 5 3 3 4 4 5 7 7 5 4 2 1 6 5 3 2 4 3 5 6 9 12 13 14 20 16 8 5 10 16 18 15 15
16 14 13 12 10 9 7 5 4 4 2 0 2 3 7 3 3 5 4 5 1 1 3 2 4 4 5 3 2 6 3 1 3 4 6 9 11 13 13 12 15 10 12 15 15 17 20
16 15 13 11 11 9 7 5 5 4 3 3 2 2 5 4 5 5 3 3 4 4 3 1 1 3 5 2 3 4 3 4 2 5 5 8 10 13 13 12 7 7 8 7 12 10 15
16 15 13 10 12 10 7 6 4 3 4 4 4 4 4 6 8 5 5 3 2 4 2 11 1 2 2 3 3 5 4 5 5 8 4 7 7 10 15 16 15 9 6 9 13 8 11
14 13 12 11 12 9 7 6 4 3 4 4 4 5 5 7 8 6 7 6 6 6 3 3 4 5 6 4 3 3 3 4 5 3 8 7 10 9 10 6 14 8 7 18 12 12 12

GFSGBSN_700_spd_078.txt.gz
Wind_Speed
15 15 15 14 13 12 12 12 12 12 12 11 11 11 11 11 11 11 11 13 15 18 18 19 17 14 13 12 12 6 16 18 18 16 20 18 16 16 13 14 12 5 3 7 7 4 4
16 16 15 14 14 14 14 13 13 13 13 12 12 12 11 11 11 10 10 11 12 15 18 19 19 17 15 13 21 11 12 18 18 16 19 17 15 16 10 9 12 13 16 8 6 11 8
15 16 16 16 16 15 15 15 15 14 14 14 12 13 12 10 11 10 9 10 10 11 15 19 20 20 19 15 22 15 14 17 18 18 15 16 12 15 13 11 14 8 11 8 9 10 9
15 15 16 16 16 16 16 15 14 13 14 14 14 12 12 10 10 10 10 10 10 9 11 15 18 19 18 20 20 16 16 16 20 20 13 14 14 16 15 10 14 16 14 19 16 14 12
15 16 15 15 15 16 16 16 16 16 15 15 15 14 13 11 11 10 10 9 9 7 7 12 16 16 11 22 17 13 14 15 20 20 16 13 16 15 15 15 15 20 19 20 13 14 15
15 15 15 15 16 17 17 18 18 17 17 17 16 14 12 12 10 9 9 7 4 4 6 10 13 12 15 17 15 15 14 16 18 17 15 17 15 15 18 20 24 23 23 19 24 18 19
15 15 14 14 16 17 19 19 18 17 16 17 17 16 13 10 8 7 6 3 4 13 4 12 4 12 5 10 16 16 18 18 17 20 20 18 16 22 21 22 20 20 19 19 18 20 19
15 15 14 15 17 19 20 20 18 17 19 19 17 15 12 10 7 3 5 8 7 7 6 13 6 7 4 17 18 17 19 20 22 22 19 14 23 18 18 18 22 23 24 21 19 12 19
16 15 15 16 18 19 20 18 18 18 19 20 18 15 11 9 5 1 6 2 10 4 6 10 13 15 13 16 16 20 22 19 20 21 22 23 13 20 19 19 20 22 22 18 19 16 19
15 15 15 17 19 20 19 18 18 17 18 19 17 15 12 7 3 6 9 6 4 5 5 14 12 14 17 14 15 18 20 20 15 20 20 21 17 17 21 22 20 22 21 18 20 24 18
14 14 14 17 20 20 19 19 18 16 17 17 14 12 9 7 5 9 8 4 6 0 6 8 10 7 14 19 13 21 20 20 13 16 21 22 21 16 23 21 20 21 19 16 10 21 15
13 14 15 18 20 20 19 19 17 16 17 14 11 9 11 7 11 9 7 6 4 5 3 7 8 12 16 18 15 19 20 20 14 15 19 19 17 19 20 19 18 22 11 20 11 19 17
13 13 14 17 20 18 17 18 16 17 16 13 10 10 13 11 6 5 4 3 6 7 4 3 10 11 18 18 17 21 20 22 20 14 20 19 20 22 16 19 21 22 16 14 12 14 10
13 13 14 16 18 17 16 16 17 15 14 12 8 9 10 11 12 7 5 5 8 7 10 7 3 10 18 18 20 19 18 21 20 18 17 20 22 19 21 25 24 27 25 18 16 13 16
11 13 13 14 16 16 14 16 16 14 12 11 4 12 14 12 9 6 6 8 2 9 6 3 4 13 16 19 17 15 19 20 18 16 13 15 27 25 24 24 26 25 30 27 25 25 23
11 13 13 13 14 14 14 14 14 15 9 11 7 4 3 2 2 5 9 10 2 4 5 4 8 8 13 14 10 12 17 14 3 6 9 3 13 20 24 23 24 14 26 27 30 10 18
13 14 13 13 13 13 14 12 11 12 9 7 10 8 6 5 2 11 8 4 6 7 4 8 3 9 10 6 5 4 13 4 5 3 4 6 6 8 20 22 23 15 21 17 25 28 17
15 16 14 13 12 12 13 10 10 10 8 6 8 9 10 2 8 4 2 5 5 7 5 4 4 1 3 2 3 7 6 2 6 6 7 7 7 12 19 17 22 19 20 19 27 29 28
15 16 16 13 13 11 12 9 8 9 7 8 8 3 8 3 5 4 2 2 1 3 3 3 3 5 3 2 1 9 12 8 2 1 7 6 11 11 10 16 14 21 20 20 23 32 31
19 18 16 14 13 10 10 7 6 6 6 9 7 2 6 7 5 5 2 3 3 4 3 1 0 1 8 5 5 2 8 3 4 2 7 9 13 4 3 12 13 24 23 21 18 21 22
18 20 15 13 12 10 8 5 4 3 4 10 6 3 2 5 5 5 4 3 2 3 2 1 4 4 7 6 8 8 7 8 3 7 4 6 11 8 8 11 13 12 28 21 17 19 14
19 17 14 13 11 9 7 5 2 1 2 5 2 1 4 4 5 3 7 3 2 1 3 2 1 4 6 4 13 13 5 6 7 8 6 6 12 10 13 12 10 12 10 13 19 19 16
13 12 14 12 10 9 7 4 3 1 3 4 2 6 4 6 4 2 4 1 1 1 3 1 1 1 3 5 6 9 2 4 7 5 7 10 8 7 13 16 12 13 3 6 7 9 14
23 10 13 12 10 8 7 4 3 3 3 4 4 10 4 2 0 1 2 4 3 4 3 2 1 2 12 11 4 8 6 6 8 8 9 8 12 11 17 10 12 18 15 12 8 4 5
7 11 12 11 10 7 6 6 4 4 4 5 5 7 4 0 2 1 3 3 5 7 3 2 4 1 3 3 2 1 5 5 7 8 10 13 14 16 22 17 10 12 20 20 19 8 12
8 10 11 10 10 7 6 7 5 5 4 6 6 6 12 2 3 6 2 2 3 2 2 3 5 3 3 1 4 4 4 2 2 4 6 8 12 13 13 20 15 5 9 11 19 15 20
7 11 14 10 9 9 7 7 5 5 5 6 5 6 9 2 9 4 2 2 3 3 1 4 3 6 3 2 2 3 2 4 2 3 3 8 9 13 14 14 6 15 13 11 14 11 28
12 14 12 11 9 10 8 7 5 5 5 6 4 6 8 9 8 9 5 4 1 1 5 5 4 3 3 3 2 6 3 3 4 7 4 3 8 10 15 17 8 10 7 7 12 14 18
15 12 11 11 11 11 9 7 6 5 6 6 5 6 7 14 4 9 6 7 9 8 4 2 4 5 3 1 4 4 3 4 5 5 4 8 5 10 6 8 8 8 5 14 12 11 15

GFSGBSN_700_spd_084.txt.gz
Wind_Speed
14 14 13 13 12 12 12 11 12 12 12 12 12 13 13 13 12 12 11 10 10 13 16 18 19 19 16 13 12 7 15 16 16 15 23 25 25 24 19 8 7 4 7 6 14 17 23
15 15 14 13 13 13 13 13 13 13 13 12 11 10 12 13 12 12 12 11 10 10 13 15 18 20 19 14 17 16 10 16 16 15 21 24 24 19 17 8 7 4 3 11 17 18 17
15 15 15 14 14 15 15 15 15 14 13 13 13 12 9 10 11 10 11 11 10 10 10 13 16 19 20 15 18 19 14 17 19 15 17 19 22 19 12 8 12 13 12 13 16 18 17
15 14 14 14 14 15 15 14 14 14 13 12 12 12 12 10 8 9 9 10 9 8 10 11 13 17 17 18 21 14 17 15 20 20 18 24 20 18 15 13 6 12 13 17 14 23 16
15 14 13 13 14 15 15 15 15 14 13 13 13 12 11 11 8 7 7 7 6 6 7 9 9 11 16 24 20 13 12 14 19 21 24 26 24 21 17 15 12 11 18 16 7 20 18
15 14 12 13 15 16 16 16 15 14 14 13 12 11 11 10 9 6 5 2 2 1 2 4 4 5 7 14 15 15 13 15 21 24 28 33 25 25 24 18 17 14 18 13 10 20 19
16 14 13 13 15 16 16 16 15 13 12 13 12 11 9 9 7 4 6 3 2 4 4 4 7 11 10 11 13 17 13 17 24 31 30 32 26 31 30 24 20 13 10 6 10 21 17
17 14 13 13 15 16 16 16 13 11 13 14 14 13 9 8 5 1 8 2 6 9 7 7 9 14 14 14 7 16 23 21 29 31 26 23 27 27 23 23 21 15 12 7 11 17 14
19 13 12 13 15 16 16 14 11 11 13 15 14 13 11 5 3 6 6 3 7 8 11 2 11 16 13 11 11 20 23 17 19 23 21 20 15 13 21 26 21 16 13 9 13 17 14
22 15 13 13 15 16 15 13 11 12 13 13 13 11 8 3 7 6 5 4 10 6 8 2 6 14 13 8 11 17 24 22 24 22 17 20 16 13 19 24 20 18 12 12 16 19 16
26 17 14 14 14 15 13 12 11 11 12 12 10 10 8 5 3 5 6 4 8 4 4 3 5 11 15 15 12 12 23 23 14 19 21 17 14 18 19 21 17 22 13 16 17 25 20
28 21 15 15 14 14 13 11 10 10 10 9 7 9 9 7 7 12 12 9 7 4 4 7 6 5 12 19 19 14 13 24 18 15 20 20 16 14 17 16 17 17 14 12 15 26 11
28 24 16 16 14 14 13 11 10 8 6 5 5 9 16 15 16 15 15 10 8 6 3 12 6 2 9 13 17 10 22 16 21 10 14 16 23 19 18 19 16 22 16 5 5 6 6
26 24 16 16 14 14 13 12 10 8 3 2 4 8 13 14 10 8 12 9 9 4 3 19 21 9 17 15 11 13 21 12 20 15 12 4 12 17 11 19 17 19 15 6 5 4 8
23 23 16 14 15 14 13 13 9 6 2 5 8 7 5 9 12 14 14 14 9 9 9 20 16 10 11 16 12 15 23 12 18 15 11 4 5 13 16 13 16 17 15 17 10 14 7
21 20 15 13 14 13 13 12 7 4 3 7 10 8 10 8 11 14 13 9 8 9 9 10 18 9 5 2 4 24 22 10 11 5 9 5 8 17 14 15 20 21 11 7 11 2 3
17 17 15 13 14 13 13 11 5 3 5 8 7 5 7 5 4 11 5 7 4 6 9 8 12 10 8 8 10 8 8 11 12 11 10 5 4 10 9 11 18 23 18 11 3 3 6
15 15 16 13 14 12 11 9 3 1 6 7 6 7 3 2 2 7 5 5 2 5 4 4 4 7 12 10 6 4 8 9 10 6 4 2 2 6 7 5 15 21 6 11 16 6 2
14 14 15 20 13 10 9 7 2 2 10 6 5 9 9 5 5 4 4 1 2 6 1 11 9 7 4 5 4 8 6 5 8 9 6 2 5 2 2 8 11 6 1 1 2 4 13
13 14 16 17 10 8 6 3 1 4 12 5 8 8 11 4 3 5 4 7 4 7 1 2 6 5 4 9 9 7 10 3 5 5 7 6 2 5 5 4 10 15 8 6 5 5 5
13 16 13 9 10 7 5 2 4 9 10 9 10 8 5 8 1 6 3 3 2 4 3 4 8 6 3 6 11 9 5 6 5 6 2 4 5 3 21 4 10 12 18 9 14 9 9
17 15 13 12 9 7 5 4 6 10 14 10 8 8 9 7 2 2 3 2 3 1 3 7 2 3 1 10 7 8 9 9 9 5 8 5 3 3 2 24 11 16 16 10 8 10 11
21 17 15 8 8 7 5 4 6 10 13 11 9 8 7 2 7 4 4 2 3 3 3 2 4 4 2 1 10 6 10 9 7 4 4 3 2 2 4 6 22 6 14 13 4 10 16
23 15 12 10 8 7 5 4 6 8 9 7 9 13 5 8 1 5 1 3 2 11 12 9 6 10 5 6 5 8 11 6 6 5 4 2 6 3 2 2 4 5 5 6 3 7 4
19 15 8 6 6 6 5 6 5 6 7 8 13 14 7 6 5 2 8 4 10 8 11 14 8 3 7 13 9 6 8 7 5 7 9 8 4 2 1 1 6 2 17 12 5 4 4
15 8 5 3 6 6 6 5 4 6 7 8 13 16 9 12 12 4 3 7 3 5 4 9 9 15 12 8 6 4 3 3 3 4 5 7 5 8 5 1 3 3 5 7 26 7 10
8 3 2 8 10 9 6 5 4 6 7 8 11 15 15 11 9 6 6 6 6 3 3 2 5 7 4 6 6 3 2 5 4 4 2 5 3 3 6 5 6 11 11 9 11 16 25
10 12 12 12 9 10 10 7 7 7 6 9 12 14 20 13 13 10 11 11 11 9 7 5 4 3 6 3 2 2 2 4 3 5 3 4 4 4 6 6 9 8 8 11 13 11 23
11 12 13 13 11 11 11 9 9 8 8 9 10 13 19 19 10 2 3 4 11 12 13 9 6 6 4 5 4 2 2 4 3 4 5 6 7 8 6 6 8 6 8 11 14 14 22

GFSGBSN_700_spd_087.txt.gz
Wind_Speed
12 11 11 10 10 10 10 11 11 11 11 11 10 11 12 12 13 13 12 10 11 12 13 17 19 19 17 14 12 12 16 17 16 16 24 27 26 19 14 17 10 6 6 7 21 28 21
13 12 11 11 11 11 11 12 12 12 12 11 11 10 11 12 12 12 11 11 10 11 11 12 18 19 19 16 17 13 18 19 18 16 23 26 22 17 11 9 4 5 8 9 21 23 19
13 12 12 12 12 12 12 12 12 12 11 11 12 11 11 10 11 11 11 10 10 9 9 10 14 19 19 19 19 20 13 20 21 17 20 23 24 22 14 10 2 6 5 7 18 27 17
14 12 12 11 13 13 13 13 12 12 12 13 13 13 13 12 11 11 10 10 9 8 8 8 10 16 16 23 21 16 17 16 22 22 24 25 25 21 16 9 6 5 9 14 15 21 15
15 13 12 12 14 14 15 14 14 13 11 10 10 11 12 13 10 9 8 8 8 6 6 6 7 12 14 21 16 15 17 17 23 23 30 30 28 23 16 14 10 11 16 10 11 14 18
16 14 13 12 13 14 15 14 14 12 10 10 9 9 11 12 10 6 5 5 6 5 3 4 7 8 11 18 17 16 15 18 26 28 32 31 27 25 21 16 14 13 11 9 11 18 19
19 14 12 11 13 15 16 16 14 11 11 12 11 9 8 8 7 3 2 2 2 5 6 7 8 14 12 15 20 15 16 20 28 31 37 32 28 30 27 22 13 11 7 3 8 6 25
22 17 13 12 13 15 15 15 12 10 11 12 12 10 7 6 3 3 4 5 3 10 7 8 8 14 15 17 23 20 21 25 31 34 35 32 32 31 24 22 19 13 5 2 9 13 19
24 20 14 13 13 15 14 13 10 10 11 11 11 10 8 3 1 5 5 3 4 9 10 1 5 14 15 14 14 24 24 21 30 34 32 31 22 29 28 23 21 16 8 7 3 12 12
25 23 15 13 13 13 13 12 10 9 10 11 10 10 7 2 4 3 5 2 8 5 3 3 6 12 9 10 11 23 24 21 23 29 28 25 24 17 22 25 24 21 11 6 6 15 16
22 22 17 12 12 12 12 10 9 9 10 10 9 8 4 3 1 3 2 3 2 4 3 3 6 4 8 9 11 23 19 18 10 22 23 17 19 18 17 25 24 23 14 7 11 16 15
21 21 19 13 12 12 11 11 10 10 8 8 6 6 5 8 10 9 7 5 3 1 5 9 4 4 12 11 13 16 22 18 14 17 19 21 15 13 15 18 19 18 11 11 14 23 8
20 19 18 12 12 12 11 10 9 10 7 5 2 9 11 14 8 6 5 5 3 3 6 13 9 6 8 18 16 11 21 27 19 12 15 20 21 17 17 14 13 16 14 3 1 4 6
18 16 17 12 12 12 11 10 8 6 5 3 3 9 8 7 5 5 7 5 5 3 11 14 13 2 14 12 18 11 18 17 14 12 5 5 7 19 18 17 12 14 16 9 6 5 6
16 14 15 12 12 13 12 10 7 3 2 4 6 7 4 9 13 11 12 17 7 2 8 14 9 9 9 13 10 13 16 18 13 19 9 7 4 13 13 14 12 17 14 16 5 4 4
16 13 13 13 13 13 11 8 5 2 3 9 10 11 7 5 9 10 9 11 6 6 8 8 10 10 6 11 11 15 18 12 8 13 19 10 7 9 13 13 13 14 11 11 8 4 3
15 12 11 13 12 15 11 7 4 2 8 11 7 6 5 7 6 5 8 9 7 4 5 6 8 6 7 9 10 15 11 9 12 8 11 11 6 4 8 6 11 12 15 7 6 4 6
14 12 12 12 16 14 10 7 3 3 12 9 8 6 5 2 1 7 4 5 4 4 3 1 3 2 7 9 9 10 7 6 11 9 2 4 3 2 5 1 9 11 9 13 12 5 4
13 13 14 15 18 10 9 6 3 6 12 11 10 7 7 4 3 6 5 2 1 5 0 3 3 3 8 5 7 16 5 5 4 12 5 2 2 3 10 11 12 9 5 7 10 14 12
14 13 16 15 13 9 8 6 5 8 14 9 7 9 9 6 4 6 7 3 3 1 3 4 3 4 2 5 10 12 8 5 3 6 5 4 5 2 10 15 14 13 8 2 4 7 11
15 16 17 16 12 10 7 6 6 10 15 10 12 13 8 10 6 1 1 1 4 1 1 1 8 5 6 7 13 8 6 6 5 6 6 4 6 9 13 7 15 16 15 2 6 6 7
17 20 19 17 14 7 6 6 7 11 15 11 9 12 9 7 4 5 4 5 5 3 4 4 4 5 5 8 8 11 14 9 6 9 8 11 6 9 10 24 11 10 15 8 6 11 10
19 20 17 14 9 6 6 6 8 12 16 13 11 10 9 3 4 5 2 4 4 4 6 3 3 5 7 7 11 10 8 9 9 7 8 9 9 7 4 9 24 19 11 15 8 8 11
15 18 17 11 7 6 6 5 8 11 13 14 13 14 9 8 4 2 2 5 12 11 11 6 4 9 7 6 13 14 8 6 5 4 3 7 6 6 5 10 3 13 13 11 10 8 4
13 15 12 6 5 4 4 5 7 9 10 12 10 15 10 12 6 6 6 3 6 7 9 8 3 3 9 8 6 12 11 10 5 4 5 3 6 4 4 5 3 10 20 21 17 9 9
12 10 6 5 4 5 4 5 7 8 9 11 14 16 11 12 11 8 2 4 1 4 5 9 9 13 13 9 6 5 3 6 4 4 5 5 6 7 8 4 4 10 14 21 24 22 19
12 9 6 6 9 8 6 7 8 8 9 11 13 19 15 14 14 11 6 4 5 3 3 3 5 7 5 5 4 3 3 6 4 4 3 3 4 7 8 4 6 9 10 11 15 13 18
12 12 13 14 12 10 8 8 8 7 9 11 12 18 17 17 15 11 10 9 9 9 7 5 2 7 7 6 5 3 3 5 6 6 4 4 5 6 6 4 6 6 11 15 15 16 15
13 13 13 13 13 12 12 11 12 13 10 10 11 15 19 20 13 13 5 9 10 12 11 10 7 4 5 6 4 3 4 4 6 5 12 7 9 5 5 4 5 5 10 11 11 13 15